QPF
0.01 0.00 0.00 0.00 0.01 0.00 0.01 0.02 0.02 0.02 0.03 0.03 0.04 0.04 0.04 0.04 0.05 0.04 0.02 0.02 0.01 0.02 0.03 0.02 0.04 0.04 0.05 0.06 0.07 0.06 0.06 0.06 0.08 0.07 0.06 0.04 0.03 0.03 0.03 0.04 0.05 0.05 0.05
0.01 0.00 0.00 0.00 0.00 0.00 0.01 0.01 0.02 0.04 0.04 0.03 0.04 0.04 0.05 0.04 0.03 0.02 0.02 0.01 0.01 0.02 0.02 0.03 0.04 0.04 0.05 0.06 0.07 0.08 0.06 0.05 0.07 0.09 0.08 0.07 0.05 0.04 0.03 0.05 0.06 0.05 0.05
0.01 0.01 0.01 0.00 0.00 0.00 0.01 0.01 0.01 0.03 0.04 0.03 0.03 0.03 0.03 0.02 0.02 0.02 0.02 0.02 0.02 0.03 0.03 0.02 0.05 0.06 0.04 0.04 0.04 0.05 0.07 0.06 0.07 0.09 0.10 0.10 0.08 0.06 0.05 0.06 0.07 0.07 0.08
0.01 0.01 0.00 0.00 0.00 0.00 0.00 0.01 0.01 0.02 0.03 0.04 0.03 0.03 0.03 0.02 0.02 0.03 0.03 0.03 0.03 0.03 0.04 0.03 0.05 0.04 0.03 0.03 0.03 0.04 0.06 0.07 0.07 0.08 0.09 0.11 0.12 0.10 0.08 0.07 0.05 0.04 0.06
0.01 0.00 0.00 0.01 0.01 0.01 0.01 0.01 0.02 0.02 0.04 0.03 0.02 0.02 0.02 0.02 0.02 0.02 0.03 0.04 0.04 0.03 0.02 0.02 0.03 0.03 0.02 0.03 0.04 0.04 0.06 0.07 0.07 0.08 0.09 0.10 0.10 0.10 0.09 0.09 0.06 0.04 0.04
0.00 0.00 0.01 0.01 0.01 0.01 0.01 0.01 0.02 0.03 0.05 0.04 0.01 0.01 0.01 0.01 0.01 0.02 0.02 0.02 0.03 0.03 0.02 0.02 0.04 0.03 0.03 0.03 0.04 0.04 0.05 0.06 0.07 0.09 0.11 0.12 0.10 0.08 0.09 0.09 0.08 0.06 0.04
0.00 0.00 0.00 0.01 0.01 0.01 0.01 0.01 0.01 0.02 0.03 0.02 0.02 0.02 0.02 0.01 0.01 0.02 0.03 0.02 0.02 0.02 0.02 0.01 0.02 0.02 0.03 0.04 0.05 0.05 0.06 0.07 0.09 0.12 0.14 0.15 0.13 0.11 0.10 0.10 0.10 0.07 0.04
0.00 0.00 0.00 0.00 0.01 0.01 0.01 0.01 0.02 0.01 0.02 0.02 0.03 0.02 0.03 0.02 0.03 0.04 0.04 0.03 0.02 0.01 0.01 0.02 0.02 0.02 0.02 0.03 0.04 0.06 0.06 0.07 0.08 0.08 0.10 0.10 0.07 0.08 0.09 0.10 0.12 0.09 0.06
0.00 0.00 0.00 0.01 0.01 0.01 0.01 0.01 0.01 0.02 0.02 0.03 0.04 0.04 0.04 0.04 0.04 0.05 0.05 0.03 0.03 0.03 0.02 0.02 0.02 0.02 0.03 0.04 0.05 0.05 0.05 0.05 0.05 0.06 0.06 0.07 0.06 0.06 0.07 0.07 0.09 0.09 0.06
0.00 0.00 0.00 0.00 0.01 0.00 0.01 0.01 0.02 0.02 0.03 0.02 0.03 0.03 0.03 0.03 0.04 0.04 0.03 0.03 0.03 0.03 0.03 0.02 0.02 0.03 0.04 0.04 0.04 0.03 0.03 0.04 0.04 0.04 0.05 0.05 0.05 0.06 0.06 0.06 0.08 0.10 0.08
0.00 0.00 0.00 0.00 0.00 0.00 0.00 0.01 0.01 0.01 0.03 0.04 0.04 0.03 0.03 0.03 0.02 0.02 0.02 0.02 0.03 0.03 0.02 0.02 0.02 0.02 0.03 0.03 0.03 0.02 0.03 0.04 0.04 0.04 0.05 0.05 0.06 0.06 0.06 0.07 0.06 0.06 0.07
0.00 0.00 0.00 0.00 0.00 0.01 0.01 0.01 0.01 0.02 0.03 0.04 0.04 0.03 0.03 0.03 0.02 0.01 0.01 0.01 0.02 0.02 0.02 0.03 0.02 0.01 0.01 0.02 0.02 0.02 0.02 0.03 0.03 0.02 0.03 0.03 0.04 0.05 0.06 0.05 0.05 0.05 0.05
0.00 0.00 0.00 0.00 0.00 0.00 0.01 0.01 0.02 0.03 0.03 0.03 0.04 0.03 0.03 0.03 0.02 0.03 0.02 0.01 0.01 0.02 0.02 0.02 0.01 0.01 0.01 0.02 0.02 0.03 0.02 0.03 0.02 0.02 0.03 0.02 0.03 0.03 0.04 0.05 0.04 0.04 0.03
0.00 0.00 0.00 0.00 0.00 0.00 0.00 0.01 0.03 0.03 0.02 0.02 0.03 0.03 0.03 0.03 0.03 0.02 0.02 0.01 0.02 0.02 0.02 0.02 0.03 0.02 0.02 0.02 0.02 0.02 0.02 0.02 0.02 0.02 0.02 0.02 0.02 0.03 0.04 0.06 0.05 0.04 0.03
0.00 0.00 0.00 0.00 0.00 0.00 0.00 0.01 0.02 0.01 0.01 0.02 0.02 0.03 0.03 0.04 0.03 0.02 0.02 0.02 0.01 0.01 0.02 0.02 0.02 0.03 0.02 0.02 0.02 0.02 0.02 0.03 0.02 0.02 0.01 0.01 0.02 0.03 0.04 0.05 0.06 0.05 0.04
0.00 0.00 0.00 0.00 0.00 0.00 0.01 0.01 0.01 0.01 0.01 0.02 0.02 0.03 0.05 0.05 0.03 0.02 0.02 0.02 0.02 0.02 0.02 0.02 0.02 0.02 0.01 0.01 0.02 0.02 0.03 0.03 0.03 0.02 0.02 0.03 0.03 0.03 0.02 0.03 0.04 0.04 0.04
0.00 0.00 0.01 0.00 0.00 0.01 0.01 0.01 0.01 0.01 0.01 0.02 0.03 0.06 0.07 0.05 0.03 0.02 0.02 0.02 0.02 0.01 0.01 0.01 0.01 0.01 0.01 0.01 0.01 0.02 0.02 0.02 0.02 0.02 0.02 0.02 0.02 0.03 0.03 0.03 0.03 0.02 0.02
0.00 0.00 0.00 0.00 0.01 0.01 0.01 0.01 0.01 0.02 0.03 0.05 0.09 0.12 0.11 0.07 0.04 0.02 0.02 0.02 0.01 0.01 0.01 0.01 0.01 0.01 0.01 0.01 0.01 0.01 0.01 0.02 0.02 0.01 0.01 0.02 0.02 0.02 0.03 0.02 0.03 0.03 0.02
0.00 0.00 0.01 0.01 0.01 0.01 0.01 0.02 0.05 0.08 0.09 0.09 0.08 0.07 0.06 0.04 0.03 0.02 0.02 0.01 0.01 0.01 0.02 0.01 0.01 0.02 0.03 0.02 0.02 0.01 0.01 0.02 0.02 0.02 0.02 0.02 0.02 0.01 0.02 0.02 0.03 0.05 0.05
0.01 0.01 0.01 0.02 0.01 0.02 0.01 0.02 0.07 0.09 0.08 0.07 0.06 0.04 0.03 0.02 0.02 0.02 0.02 0.02 0.01 0.01 0.01 0.02 0.02 0.03 0.03 0.02 0.02 0.01 0.01 0.02 0.02 0.02 0.02 0.02 0.01 0.01 0.02 0.01 0.02 0.03 0.07
0.01 0.01 0.02 0.02 0.02 0.02 0.01 0.03 0.04 0.03 0.02 0.02 0.02 0.02 0.03 0.02 0.01 0.02 0.02 0.03 0.03 0.02 0.03 0.04 0.04 0.05 0.04 0.03 0.03 0.02 0.02 0.03 0.03 0.03 0.03 0.03 0.03 0.04 0.03 0.01 0.01 0.02 0.05
0.01 0.02 0.02 0.02 0.02 0.01 0.01 0.01 0.01 0.01 0.01 0.01 0.01 0.02 0.02 0.02 0.02 0.03 0.03 0.04 0.05 0.05 0.06 0.05 0.04 0.04 0.05 0.04 0.04 0.04 0.04 0.04 0.05 0.06 0.06 0.04 0.04 0.04 0.03 0.02 0.02 0.02 0.03
0.02 0.02 0.02 0.01 0.01 0.01 0.01 0.01 0.01 0.01 0.01 0.01 0.01 0.01 0.01 0.02 0.03 0.03 0.02 0.03 0.05 0.06 0.06 0.05 0.04 0.03 0.03 0.03 0.04 0.04 0.05 0.05 0.05 0.05 0.05 0.04 0.04 0.04 0.03 0.02 0.02 0.03 0.04
0.01 0.02 0.02 0.02 0.01 0.01 0.01 0.01 0.01 0.01 0.02 0.02 0.02 0.02 0.03 0.03 0.04 0.04 0.02 0.01 0.02 0.03 0.04 0.04 0.04 0.04 0.03 0.04 0.03 0.03 0.04 0.03 0.03 0.04 0.04 0.04 0.04 0.04 0.03 0.03 0.03 0.03 0.03
0.01 0.01 0.02 0.02 0.02 0.02 0.01 0.01 0.01 0.02 0.02 0.03 0.03 0.03 0.03 0.04 0.04 0.04 0.03 0.02 0.02 0.02 0.02 0.02 0.03 0.04 0.04 0.04 0.04 0.04 0.03 0.02 0.02 0.02 0.03 0.04 0.04 0.04 0.05 0.05 0.06 0.04 0.04
0.01 0.01 0.01 0.02 0.02 0.02 0.01 0.01 0.02 0.02 0.02 0.03 0.03 0.03 0.03 0.03 0.04 0.03 0.02 0.02 0.02 0.01 0.01 0.01 0.02 0.03 0.05 0.06 0.05 0.04 0.03 0.02 0.02 0.02 0.02 0.03 0.04 0.05 0.05 0.05 0.04 0.04 0.04
MSLP
1016.43 1016.42 1016.34 1016.21 1016.04 1015.86 1015.69 1015.57 1015.49 1015.46 1015.48 1015.53 1015.59 1015.66 1015.73 1015.81 1015.90 1016.01 1016.14 1016.30 1016.47 1016.64 1016.80 1016.92 1017.01 1017.04 1017.04 1017.01 1016.95 1016.87 1016.80 1016.71 1016.61 1016.48 1016.33 1016.13 1015.89 1015.61 1015.30 1014.98 1014.65 1014.36 1014.10
1016.56 1016.62 1016.61 1016.53 1016.38 1016.21 1016.02 1015.86 1015.74 1015.67 1015.63 1015.63 1015.65 1015.66 1015.67 1015.68 1015.69 1015.71 1015.76 1015.84 1015.95 1016.08 1016.22 1016.34 1016.43 1016.49 1016.50 1016.47 1016.41 1016.33 1016.23 1016.13 1016.02 1015.89 1015.75 1015.58 1015.37 1015.13 1014.86 1014.56 1014.26 1013.98 1013.74
1016.62 1016.77 1016.85 1016.83 1016.74 1016.59 1016.41 1016.23 1016.08 1015.97 1015.91 1015.86 1015.84 1015.81 1015.76 1015.71 1015.64 1015.58 1015.55 1015.55 1015.59 1015.67 1015.77 1015.87 1015.96 1016.02 1016.04 1016.02 1015.96 1015.87 1015.76 1015.65 1015.54 1015.42 1015.29 1015.15 1014.97 1014.77 1014.53 1014.26 1013.99 1013.71 1013.47
1016.57 1016.82 1017.00 1017.07 1017.05 1016.94 1016.79 1016.61 1016.45 1016.32 1016.24 1016.18 1016.13 1016.07 1016.00 1015.90 1015.78 1015.66 1015.56 1015.48 1015.46 1015.47 1015.53 1015.60 1015.67 1015.72 1015.74 1015.72 1015.66 1015.57 1015.46 1015.35 1015.24 1015.13 1015.02 1014.90 1014.76 1014.58 1014.37 1014.12 1013.85 1013.58 1013.33
1016.41 1016.75 1017.02 1017.19 1017.24 1017.20 1017.08 1016.92 1016.77 1016.64 1016.55 1016.50 1016.45 1016.40 1016.32 1016.21 1016.07 1015.92 1015.77 1015.64 1015.55 1015.51 1015.51 1015.55 1015.59 1015.62 1015.63 1015.60 1015.54 1015.45 1015.35 1015.24 1015.14 1015.04 1014.95 1014.84 1014.72 1014.56 1014.36 1014.13 1013.86 1013.58 1013.31
1016.12 1016.54 1016.91 1017.16 1017.29 1017.30 1017.23 1017.11 1016.98 1016.87 1016.80 1016.77 1016.75 1016.73 1016.68 1016.59 1016.46 1016.30 1016.13 1015.97 1015.84 1015.75 1015.70 1015.69 1015.70 1015.70 1015.69 1015.65 1015.58 1015.50 1015.39 1015.29 1015.19 1015.10 1015.01 1014.92 1014.80 1014.65 1014.46 1014.22 1013.95 1013.66 1013.37
1015.74 1016.23 1016.66 1016.99 1017.18 1017.26 1017.23 1017.15 1017.05 1016.98 1016.95 1016.95 1016.98 1017.01 1017.01 1016.97 1016.88 1016.74 1016.57 1016.40 1016.24 1016.11 1016.02 1015.97 1015.93 1015.90 1015.86 1015.81 1015.73 1015.64 1015.54 1015.43 1015.34 1015.25 1015.16 1015.06 1014.94 1014.78 1014.59 1014.34 1014.07 1013.77 1013.47
1015.33 1015.85 1016.33 1016.71 1016.96 1017.08 1017.11 1017.07 1017.01 1016.98 1016.99 1017.05 1017.13 1017.22 1017.29 1017.30 1017.26 1017.16 1017.02 1016.85 1016.68 1016.53 1016.40 1016.31 1016.23 1016.17 1016.10 1016.03 1015.94 1015.84 1015.73 1015.62 1015.51 1015.41 1015.31 1015.19 1015.06 1014.89 1014.68 1014.43 1014.15 1013.85 1013.55
1014.92 1015.47 1015.97 1016.39 1016.68 1016.84 1016.91 1016.91 1016.90 1016.91 1016.97 1017.08 1017.22 1017.36 1017.49 1017.56 1017.58 1017.52 1017.41 1017.26 1017.09 1016.93 1016.79 1016.66 1016.55 1016.46 1016.37 1016.27 1016.16 1016.04 1015.92 1015.80 1015.68 1015.56 1015.43 1015.29 1015.14 1014.95 1014.73 1014.47 1014.20 1013.90 1013.62
1014.58 1015.12 1015.64 1016.07 1016.39 1016.59 1016.69 1016.74 1016.78 1016.83 1016.93 1017.08 1017.26 1017.45 1017.62 1017.74 1017.80 1017.79 1017.71 1017.59 1017.44 1017.28 1017.13 1016.99 1016.86 1016.75 1016.63 1016.51 1016.39 1016.26 1016.12 1015.98 1015.83 1015.69 1015.54 1015.37 1015.19 1014.98 1014.75 1014.49 1014.21 1013.94 1013.68
1014.30 1014.83 1015.34 1015.78 1016.12 1016.35 1016.50 1016.59 1016.68 1016.77 1016.91 1017.09 1017.29 1017.51 1017.70 1017.85 1017.93 1017.95 1017.91 1017.81 1017.69 1017.55 1017.41 1017.27 1017.15 1017.02 1016.90 1016.77 1016.63 1016.48 1016.33 1016.17 1016.00 1015.84 1015.66 1015.47 1015.26 1015.03 1014.78 1014.52 1014.26 1014.01 1013.77
1014.07 1014.58 1015.07 1015.51 1015.87 1016.13 1016.33 1016.47 1016.60 1016.74 1016.91 1017.11 1017.32 1017.54 1017.73 1017.89 1017.99 1018.02 1018.01 1017.94 1017.85 1017.74 1017.63 1017.52 1017.40 1017.28 1017.16 1017.03 1016.88 1016.72 1016.56 1016.38 1016.21 1016.02 1015.82 1015.61 1015.39 1015.15 1014.90 1014.64 1014.38 1014.15 1013.94
1013.83 1014.32 1014.79 1015.23 1015.60 1015.90 1016.15 1016.35 1016.53 1016.72 1016.92 1017.13 1017.34 1017.55 1017.73 1017.87 1017.96 1018.01 1018.01 1017.98 1017.93 1017.86 1017.78 1017.70 1017.61 1017.52 1017.40 1017.27 1017.13 1016.97 1016.79 1016.61 1016.43 1016.24 1016.03 1015.82 1015.59 1015.35 1015.10 1014.85 1014.60 1014.38 1014.18
1013.54 1013.99 1014.45 1014.88 1015.27 1015.61 1015.91 1016.18 1016.42 1016.65 1016.88 1017.11 1017.32 1017.50 1017.66 1017.78 1017.86 1017.91 1017.93 1017.93 1017.91 1017.89 1017.86 1017.82 1017.76 1017.69 1017.59 1017.46 1017.32 1017.16 1016.99 1016.81 1016.63 1016.44 1016.25 1016.05 1015.83 1015.61 1015.37 1015.13 1014.89 1014.68 1014.49
1013.15 1013.57 1014.01 1014.43 1014.84 1015.22 1015.58 1015.91 1016.22 1016.51 1016.78 1017.01 1017.22 1017.39 1017.53 1017.63 1017.69 1017.74 1017.77 1017.79 1017.81 1017.83 1017.84 1017.83 1017.81 1017.75 1017.66 1017.54 1017.40 1017.24 1017.07 1016.90 1016.73 1016.57 1016.40 1016.22 1016.04 1015.84 1015.63 1015.40 1015.18 1014.97 1014.78
1012.68 1013.06 1013.47 1013.89 1014.31 1014.73 1015.14 1015.54 1015.91 1016.26 1016.57 1016.83 1017.04 1017.21 1017.32 1017.40 1017.45 1017.49 1017.53 1017.57 1017.62 1017.67 1017.70 1017.72 1017.71 1017.66 1017.57 1017.45 1017.30 1017.13 1016.96 1016.80 1016.66 1016.52 1016.39 1016.26 1016.12 1015.96 1015.78 1015.58 1015.38 1015.17 1014.98
1012.15 1012.50 1012.88 1013.28 1013.71 1014.16 1014.62 1015.08 1015.52 1015.92 1016.27 1016.56 1016.79 1016.95 1017.05 1017.12 1017.16 1017.19 1017.23 1017.27 1017.33 1017.39 1017.44 1017.46 1017.44 1017.38 1017.28 1017.14 1016.97 1016.80 1016.63 1016.48 1016.35 1016.25 1016.16 1016.08 1015.99 1015.87 1015.74 1015.58 1015.39 1015.20 1015.00
1011.64 1011.96 1012.31 1012.70 1013.13 1013.60 1014.09 1014.59 1015.08 1015.53 1015.92 1016.24 1016.48 1016.65 1016.75 1016.80 1016.82 1016.84 1016.87 1016.91 1016.96 1017.00 1017.04 1017.05 1017.01 1016.93 1016.79 1016.63 1016.44 1016.24 1016.07 1015.92 1015.81 1015.74 1015.69 1015.65 1015.60 1015.54 1015.45 1015.32 1015.16 1014.98 1014.79
1011.25 1011.54 1011.86 1012.22 1012.64 1013.11 1013.61 1014.14 1014.66 1015.14 1015.56 1015.91 1016.16 1016.33 1016.43 1016.47 1016.47 1016.47 1016.47 1016.48 1016.51 1016.53 1016.53 1016.51 1016.44 1016.32 1016.15 1015.96 1015.74 1015.53 1015.34 1015.19 1015.09 1015.04 1015.01 1015.00 1015.00 1014.97 1014.92 1014.82 1014.69 1014.53 1014.34
1011.00 1011.27 1011.57 1011.91 1012.30 1012.76 1013.26 1013.79 1014.32 1014.81 1015.25 1015.60 1015.86 1016.03 1016.12 1016.14 1016.12 1016.08 1016.05 1016.02 1016.00 1015.98 1015.95 1015.89 1015.78 1015.63 1015.44 1015.21 1014.98 1014.75 1014.55 1014.40 1014.29 1014.24 1014.22 1014.23 1014.24 1014.23 1014.20 1014.12 1014.01 1013.86 1013.69
1010.92 1011.18 1011.45 1011.76 1012.13 1012.56 1013.04 1013.55 1014.07 1014.56 1014.99 1015.34 1015.60 1015.75 1015.82 1015.81 1015.76 1015.68 1015.60 1015.53 1015.46 1015.39 1015.32 1015.22 1015.09 1014.92 1014.72 1014.48 1014.24 1014.01 1013.80 1013.64 1013.52 1013.45 1013.42 1013.41 1013.41 1013.40 1013.36 1013.29 1013.19 1013.06 1012.90
1010.96 1011.21 1011.47 1011.75 1012.08 1012.48 1012.92 1013.41 1013.90 1014.37 1014.78 1015.11 1015.34 1015.47 1015.51 1015.47 1015.37 1015.25 1015.12 1015.00 1014.88 1014.78 1014.67 1014.56 1014.42 1014.25 1014.06 1013.84 1013.61 1013.38 1013.17 1012.99 1012.85 1012.75 1012.68 1012.64 1012.60 1012.55 1012.49 1012.41 1012.30 1012.17 1012.03
1011.01 1011.26 1011.51 1011.77 1012.08 1012.44 1012.85 1013.29 1013.75 1014.18 1014.56 1014.86 1015.06 1015.16 1015.16 1015.08 1014.95 1014.78 1014.60 1014.43 1014.28 1014.14 1014.03 1013.91 1013.79 1013.65 1013.49 1013.30 1013.10 1012.90 1012.69 1012.50 1012.33 1012.18 1012.06 1011.94 1011.84 1011.74 1011.64 1011.52 1011.40 1011.27 1011.13
1010.96 1011.22 1011.47 1011.73 1012.01 1012.34 1012.72 1013.12 1013.54 1013.94 1014.28 1014.55 1014.72 1014.78 1014.75 1014.64 1014.46 1014.25 1014.04 1013.83 1013.66 1013.51 1013.40 1013.30 1013.21 1013.12 1013.01 1012.88 1012.72 1012.54 1012.35 1012.14 1011.93 1011.72 1011.52 1011.33 1011.15 1010.97 1010.81 1010.65 1010.51 1010.37 1010.24
1010.72 1011.00 1011.26 1011.51 1011.79 1012.10 1012.46 1012.84 1013.22 1013.59 1013.90 1014.14 1014.28 1014.32 1014.27 1014.12 1013.92 1013.68 1013.44 1013.22 1013.03 1012.89 1012.79 1012.73 1012.69 1012.65 1012.60 1012.53 1012.42 1012.26 1012.07 1011.84 1011.59 1011.31 1011.03 1010.75 1010.48 1010.23 1010.01 1009.80 1009.63 1009.48 1009.36
1010.26 1010.56 1010.83 1011.10 1011.38 1011.69 1012.04 1012.40 1012.77 1013.12 1013.41 1013.63 1013.76 1013.79 1013.72 1013.56 1013.34 1013.10 1012.85 1012.62 1012.44 1012.31 1012.24 1012.21 1012.21 1012.23 1012.23 1012.20 1012.12 1011.98 1011.79 1011.53 1011.22 1010.88 1010.53 1010.16 1009.81 1009.49 1009.21 1008.97 1008.77 1008.62 1008.50
Thickness
5804 5802 5799 5797 5793 5788 5784 5780 5777 5775 5773 5771 5769 5767 5766 5766 5766 5765 5763 5761 5760 5760 5759 5761 5759 5759 5759 5757 5758 5757 5756 5757 5758 5756 5754 5757 5760 5759 5758 5757 5757 5756 5755
5803 5800 5798 5796 5792 5788 5784 5780 5776 5775 5772 5771 5769 5768 5766 5766 5765 5764 5762 5760 5759 5758 5759 5756 5758 5758 5756 5755 5754 5754 5754 5755 5756 5753 5750 5748 5751 5754 5758 5756 5754 5754 5754
5802 5799 5797 5794 5792 5787 5784 5781 5777 5774 5772 5770 5770 5768 5764 5763 5763 5762 5760 5759 5757 5756 5755 5755 5755 5755 5756 5754 5753 5753 5751 5751 5753 5753 5749 5745 5743 5747 5752 5753 5752 5751 5751
5805 5801 5797 5794 5792 5789 5786 5781 5777 5774 5771 5769 5767 5765 5762 5760 5761 5760 5760 5757 5755 5755 5754 5753 5752 5752 5753 5752 5752 5753 5752 5749 5749 5750 5749 5748 5747 5741 5741 5746 5749 5749 5748
5806 5802 5799 5796 5794 5791 5787 5781 5776 5773 5770 5768 5766 5763 5762 5761 5761 5759 5757 5755 5754 5753 5753 5751 5750 5749 5750 5750 5749 5749 5749 5749 5747 5747 5746 5745 5744 5743 5739 5736 5740 5744 5747
5806 5802 5800 5796 5792 5790 5786 5782 5776 5771 5769 5767 5765 5762 5760 5758 5757 5755 5753 5753 5753 5752 5750 5749 5747 5747 5748 5747 5746 5746 5746 5745 5744 5744 5744 5742 5741 5740 5738 5735 5735 5736 5741
5804 5800 5795 5792 5788 5786 5784 5781 5775 5770 5768 5765 5763 5761 5758 5756 5754 5753 5751 5750 5751 5750 5747 5747 5744 5744 5743 5743 5743 5742 5742 5742 5740 5740 5741 5741 5741 5741 5738 5735 5733 5733 5737
5803 5799 5794 5790 5786 5784 5782 5779 5774 5768 5766 5763 5761 5759 5757 5756 5755 5751 5751 5749 5748 5747 5745 5742 5741 5740 5740 5740 5739 5740 5739 5738 5737 5738 5737 5737 5739 5739 5736 5734 5730 5728 5731
5799 5797 5794 5790 5786 5783 5779 5776 5771 5766 5763 5761 5759 5756 5754 5752 5751 5749 5747 5747 5744 5743 5741 5739 5738 5737 5736 5735 5734 5735 5734 5734 5734 5734 5733 5733 5735 5735 5735 5733 5730 5726 5723
5795 5794 5792 5789 5786 5783 5779 5774 5769 5764 5761 5759 5756 5755 5751 5748 5746 5745 5743 5741 5740 5738 5736 5735 5734 5732 5731 5731 5730 5730 5729 5728 5729 5729 5728 5728 5731 5730 5730 5729 5728 5726 5722
5791 5790 5789 5786 5784 5781 5776 5771 5766 5761 5758 5755 5752 5750 5748 5745 5743 5741 5739 5737 5735 5733 5731 5729 5728 5727 5726 5726 5724 5725 5724 5723 5723 5723 5723 5722 5723 5724 5724 5724 5723 5721 5719
5788 5786 5784 5781 5778 5776 5772 5767 5763 5760 5756 5753 5749 5745 5743 5741 5739 5737 5735 5733 5730 5728 5726 5724 5723 5722 5721 5720 5719 5718 5718 5717 5716 5716 5716 5716 5718 5716 5717 5716 5716 5715 5713
5781 5779 5777 5774 5771 5769 5766 5764 5761 5757 5754 5750 5746 5742 5739 5736 5734 5732 5730 5728 5725 5723 5722 5719 5717 5716 5715 5714 5713 5712 5712 5712 5711 5710 5709 5710 5710 5709 5709 5708 5709 5708 5708
5773 5772 5769 5767 5765 5762 5760 5758 5757 5754 5751 5747 5742 5737 5735 5732 5729 5726 5724 5722 5720 5718 5716 5714 5712 5711 5710 5708 5707 5706 5706 5705 5705 5704 5704 5704 5703 5702 5702 5702 5701 5700 5699
5766 5764 5762 5760 5758 5756 5754 5753 5751 5749 5746 5742 5738 5734 5730 5727 5724 5721 5719 5717 5715 5713 5710 5708 5707 5706 5705 5704 5701 5700 5700 5699 5699 5698 5698 5698 5696 5696 5695 5696 5695 5694 5693
5759 5757 5755 5754 5753 5751 5749 5747 5745 5744 5741 5737 5734 5730 5725 5722 5718 5715 5713 5711 5709 5708 5705 5703 5702 5700 5700 5696 5693 5692 5694 5694 5693 5692 5692 5693 5691 5689 5687 5687 5686 5685 5686
5753 5752 5750 5749 5748 5748 5745 5742 5741 5739 5736 5732 5729 5725 5721 5716 5713 5712 5708 5706 5704 5702 5700 5698 5697 5695 5693 5689 5686 5685 5687 5688 5688 5687 5687 5689 5689 5684 5683 5681 5680 5679 5678
5748 5747 5746 5745 5744 5744 5742 5739 5736 5733 5730 5726 5723 5720 5716 5711 5708 5707 5704 5700 5698 5697 5695 5693 5692 5689 5687 5683 5681 5680 5683 5684 5683 5683 5682 5681 5680 5679 5677 5677 5676 5675 5674
5744 5742 5742 5741 5738 5737 5736 5733 5730 5727 5724 5721 5718 5715 5711 5706 5703 5701 5699 5696 5693 5691 5690 5688 5686 5684 5681 5677 5676 5675 5679 5679 5678 5678 5677 5676 5674 5671 5669 5669 5669 5668 5668
5738 5736 5735 5734 5731 5730 5729 5726 5724 5721 5718 5716 5713 5710 5707 5703 5699 5696 5694 5691 5688 5686 5685 5683 5682 5679 5677 5673 5671 5669 5675 5674 5674 5673 5672 5668 5667 5664 5661 5662 5662 5661 5661
5728 5728 5727 5726 5725 5723 5721 5718 5717 5714 5713 5711 5708 5705 5702 5698 5695 5691 5688 5686 5683 5681 5679 5677 5676 5674 5672 5670 5666 5665 5668 5669 5669 5669 5668 5666 5659 5656 5654 5654 5656 5655 5654
5719 5718 5717 5717 5717 5716 5714 5711 5709 5709 5707 5705 5702 5698 5696 5694 5692 5686 5683 5681 5677 5675 5674 5672 5671 5671 5668 5665 5662 5660 5659 5660 5662 5662 5662 5659 5653 5650 5649 5648 5648 5647 5646
5711 5710 5710 5709 5709 5709 5707 5704 5703 5702 5700 5697 5695 5692 5690 5687 5685 5681 5679 5677 5674 5673 5672 5670 5669 5668 5666 5661 5657 5655 5654 5653 5654 5655 5651 5649 5646 5644 5644 5642 5641 5640 5643
5703 5703 5702 5702 5701 5700 5700 5698 5696 5695 5693 5690 5688 5687 5685 5682 5679 5676 5676 5673 5671 5669 5667 5666 5664 5663 5661 5658 5655 5652 5650 5647 5648 5647 5645 5642 5640 5639 5638 5638 5637 5637 5639
5696 5696 5695 5695 5694 5693 5692 5692 5690 5688 5686 5684 5682 5681 5680 5678 5674 5672 5669 5667 5665 5663 5659 5660 5659 5656 5654 5650 5645 5644 5644 5644 5643 5640 5640 5640 5639 5637 5637 5636 5635 5634 5633
5689 5689 5688 5687 5687 5686 5685 5685 5683 5681 5679 5677 5676 5677 5676 5672 5671 5668 5664 5659 5657 5654 5652 5649 5648 5648 5644 5640 5638 5637 5635 5633 5632 5633 5636 5635 5634 5633 5633 5632 5630 5629 5627